GFSNIL_con_mucape_057.txt.gz
CAPE
1550 747 680 1138 652 619 491 803 1524 2092 2212 2340 2448 2402 2337 2155 2121 2098 1665 1420 762 252
1394 1330 944 1375 1117 672 1060 450 1069 1606 1933 2130 2297 2512 2498 2199 2246 2225 2286 1961 2004 1318
1243 1324 1333 1270 1345 1305 860 759 641 1375 1719 1971 2158 2429 2555 2167 2373 2407 2149 2016 2272 2413
1063 924 999 1016 1165 1526 1045 1067 1197 1496 1635 1855 2018 2214 2527 2476 2354 2600 2618 2460 2302 2349
1104 1139 844 1186 1098 1373 1592 1097 1191 1434 1691 1777 1797 1947 2194 2147 1806 2314 2660 2755 2703 2474
953 992 1373 1331 1283 1368 1447 1430 996 1167 1563 1571 1689 1895 2073 2146 2200 2292 2470 2740 2915 2891
1300 1357 1328 1605 1644 1327 1606 1535 1424 1391 1531 1526 1616 1720 1894 2065 2231 2377 2424 2620 2746 2844
1473 1528 1648 1748 1775 1538 1698 1759 1882 1498 1373 1478 1382 1237 1851 1912 2136 2409 2552 2576 2749 2781
1709 1774 1818 1913 1846 2027 1800 1670 1663 1658 1754 1651 1278 658 762 1486 1932 2473 2653 2672 2707 2684
1900 1894 1953 1999 2163 2304 2299 1732 1802 1672 1752 2030 2275 931 715 833 1651 2134 2628 2749 2661 2613
1985 1984 2046 2085 2090 2143 2079 2483 2311 2164 2349 2214 2231 1301 871 645 1164 2237 2654 2822 2928 3235
1954 2103 2218 2281 2316 2273 1949 2009 2018 2040 2248 2426 2546 1392 1028 916 1431 1966 2646 2767 2891 3044
1998 2113 2302 2476 2624 2679 2421 2105 1914 1905 2205 1956 2659 1845 1224 948 1411 2102 1973 2781 3115 2022
2358 2451 2529 2722 2875 2630 2683 2766 2761 2557 2745 2514 2167 2376 1695 1333 1578 1909 2195 2224 2267 2418

GFSNIL_con_mucape_063.txt.gz
CAPE
2587 910 862 1890 976 692 473 618 3491 2531 2132 2362 2640 2133 2752 2101 2014 3218 1932 2047 2711 1225
2495 1759 856 2192 2675 1570 1942 807 818 1584 2183 2076 2168 2678 3285 2022 3148 2199 2507 2687 2588 1835
2546 2549 2398 2884 3391 2365 2440 2675 1456 2001 1619 2127 2492 2451 3734 2844 3209 2895 2399 1701 3303 3085
2374 1997 2461 2948 3126 3050 2813 3270 3045 2695 2336 2014 2151 2740 3717 3695 2793 3332 3375 3212 2437 3249
2829 2228 2183 2633 2739 3382 3453 3186 3430 3050 2957 2361 2089 2940 3612 2884 2564 2553 2766 3066 3721 2680
2596 2636 2271 2904 2757 3225 3552 3636 2357 3092 3547 2952 2454 2921 3469 3792 3286 3022 3155 3146 3463 3483
2512 2525 2381 2803 3143 3140 3574 3705 3553 3687 3630 3261 2712 2585 2552 3054 3430 3476 2844 3149 3230 3505
2682 2682 2793 2635 3211 3216 3587 3644 3871 3898 3744 3616 2666 1862 2629 2903 3215 3641 3211 3205 3098 3271
2877 2991 2966 2926 3171 3576 3711 3862 3991 3898 3944 3718 2155 1300 1015 1752 2433 2975 3306 3593 3768 3673
2977 3089 3134 3117 3396 3647 3905 4090 4245 4108 4078 4103 3862 1528 1099 698 1734 2498 3003 3382 3851 3328
3355 3442 3568 3627 3617 3882 4051 4100 4183 4241 4245 4290 3949 2426 1591 1085 2007 2121 2503 3228 3531 3797
3538 3676 3904 3877 3975 4074 4171 4199 4143 4264 4390 4410 4212 2368 2036 1572 2134 2196 2957 3025 2977 3250
3782 4032 4086 4116 4189 4261 4320 4236 3400 3860 4291 3913 4473 3363 2264 1823 2085 2514 2251 3301 3587 2558
4066 4186 4309 4426 4472 4473 4384 3629 4321 4233 4252 4306 3938 4253 2732 2242 2720 2245 2185 2188 2017 2265

GFSNIL_con_mucape_069.txt.gz
CAPE
981 200 498 1125 1391 1190 1367 1223 1326 1815 1264 1495 1493 1626 1519 1214 1561 1775 1834 1441 1741 1801
1049 281 398 708 1119 1202 1127 1262 1128 2085 1397 1700 1851 1729 1660 1379 1224 1699 1805 2037 1511 1937
361 1021 441 504 764 1307 542 1226 1386 1999 1763 2108 1581 1473 1823 1212 1429 1342 1360 1163 1638 1443
24 772 898 539 303 1079 981 1365 2061 1938 2208 2389 2232 1653 1751 1309 1549 1436 1342 1308 1694 1999
146 250 628 755 260 511 920 912 1954 2003 2060 1837 1689 2102 2206 1637 1575 1882 1561 1566 1895 1979
869 106 405 303 610 312 1517 707 1123 1770 1895 1868 1869 1674 1845 2140 1668 1631 1806 1599 1793 2016
996 966 204 186 53 1059 944 2042 1778 1873 1726 1960 1590 1599 1758 1889 2039 2048 1958 2147 2084 2204
1169 1093 1184 658 408 16 1246 926 1588 1838 2056 1997 1975 1780 1585 1693 2061 2157 2209 2108 2038 2340
1446 1318 1261 1298 1013 748 337 1647 1071 1107 1694 2035 2094 2070 1871 1572 1614 2417 2222 2262 2336 2333
1647 1545 1399 1383 1279 1175 932 546 1722 1787 1806 1816 2048 2116 2134 1933 1454 1182 2000 2266 2181 2258
1609 1571 1570 1483 1473 1280 1291 971 989 1252 1761 1986 1993 2280 2204 2063 1717 1426 1203 1946 2293 2143
1535 1590 1605 1496 1499 1562 1487 1591 1318 1616 1847 2046 2124 2359 2427 2246 1769 1334 1339 1340 1432 1714
1399 1618 1478 1612 1468 1663 1576 1378 1745 1564 1804 2093 2133 2312 2546 2458 2155 1734 1290 1124 1383 1810
1505 1542 1588 1565 1633 1543 1653 1534 1406 1784 1774 2005 2308 2373 2509 2681 2518 1963 1433 1229 1066 1221

GFSNIL_con_mucape_072.txt.gz
CAPE
111 122 213 728 785 940 1144 1450 1507 1644 1433 1019 970 931 974 1203 1237 1618 1402 1413 1223 1531
591 262 161 670 945 921 816 1051 1431 1836 1556 1252 1222 1181 1205 1130 906 1318 1356 1348 1339 1132
242 635 464 229 607 1253 1010 963 995 1590 1571 1223 1251 1103 1129 1066 991 1003 1167 1313 1269 1209
16 183 792 335 265 808 1220 1094 1199 1371 1496 1397 1320 1352 1359 1364 1122 1088 1094 830 1116 859
20 30 480 804 255 223 635 911 1454 1450 1470 1399 1497 1284 1159 1194 1008 999 1255 1041 1028 1139
166 0 94 503 755 431 394 788 1559 1581 1698 1578 1596 1626 1340 1183 1251 1240 1489 1466 1388 1198
552 230 7 159 353 660 454 350 699 1688 1534 1462 1617 1916 1937 1885 1766 1549 1334 1370 1476 1479
744 696 349 81 153 173 496 360 661 816 1620 1698 1595 1385 1193 1220 1335 1489 1517 1529 1598 1725
567 873 832 627 374 65 18 517 620 1197 1100 1356 1464 1439 1368 1394 1392 1408 1452 1432 1584 1794
1050 858 899 976 849 698 451 17 601 656 1367 1508 1615 1639 1601 1498 1268 1231 1487 1576 1553 1671
1457 1339 1134 1039 1177 1118 981 875 467 982 741 827 1310 1680 1857 1783 1651 1470 1356 1328 1787 1949
1750 1652 1502 1406 1308 1266 1231 1162 1066 843 1237 1422 1172 1265 1544 1756 1841 1772 1701 1582 1374 1406
1033 1554 1689 1630 1543 1447 1364 1263 1186 1125 949 751 1271 1588 1672 1759 1648 1659 1719 1683 1551 1415
930 1365 1550 1654 1599 1520 1496 1391 1311 1273 1130 1147 1285 1395 1679 1847 1851 1573 1444 1619 1447 1304

GFSNIL_con_mucape_075.txt.gz
CAPE
48 74 188 314 492 655 872 1013 1057 1244 1164 1227 726 886 651 1052 1145 937 876 915 1251 1238
72 30 115 118 434 704 798 1008 1186 1300 1418 1391 1098 845 1019 1050 1116 1123 1384 1246 1142 885
128 89 51 51 353 862 815 885 995 1347 1541 1531 1463 1182 1095 1199 1190 1050 1014 1225 1258 1214
109 219 338 201 81 177 768 1020 913 996 1484 1513 1661 1404 1132 1107 1099 1009 983 909 1059 1121
30 50 159 289 310 260 159 615 1202 1026 1165 1311 1464 1508 1158 1112 1242 1222 989 1141 1066 932
56 27 31 99 254 311 320 174 608 913 1129 1275 1267 1346 1299 1257 1121 1284 1128 1112 1513 1514
190 117 68 26 53 261 327 332 216 906 1181 1315 1308 1334 1332 1257 1194 1236 1214 1333 1301 1403
238 235 165 78 2 21 179 226 287 347 1215 1412 1418 1433 1374 1466 1521 1622 1573 1664 1572 1426
317 341 419 335 188 33 0 85 139 220 275 1105 1436 1405 1367 1408 1586 1727 1653 1433 1359 1392
476 503 526 619 493 296 117 44 10 107 358 390 744 1289 1461 1445 1430 1250 1120 1187 1248 1229
708 641 599 672 642 546 423 241 182 152 63 490 571 839 1115 1359 1402 1273 1209 1136 1142 1197
1006 1011 1053 1020 955 873 767 670 562 512 471 354 215 820 1207 1335 1355 1352 1332 1312 1310 1251
972 1377 1407 1378 1474 1376 1176 1025 1009 919 864 793 718 391 661 1293 1194 1280 1366 1334 1199 1259
794 874 1042 1136 1392 1461 1441 1408 1226 1151 1092 1063 914 834 874 811 769 795 908 956 938 927